Terminal Aerodrome Forecast
Issued by NWS Aberdeen, SD

Home | Current Version | Previous Version | Text Only | Print | Product List | Glossary On
Versions: 1 2 3 4 5 6 7 8 9 10 11 12 13 14 15 16 17 18 19 20 21 22 23 24 25 26 27 28 29 30 31 32 33 34 35 36 37 38 39 40 41 42 43 44 45 46 47 48 49 50
000
FTUS43 KABR 011324 AAA
TAFABR
TAF AMD
KABR 011324Z 0113/0212 08005KT 4SM BR BKN016 OVC060
     FM011600 12007KT P6SM VCSH FEW020 BKN100
     FM011900 14007KT P6SM -RA VCTS OVC050CB
     FM020200 VRB06KT P6SM VCSH SCT070 BKN100=

USA.gov is the U.S. government's official web portal to all federal, state and local government web resources and services.